カタログに戻る

DELTA 1 DEB

運用中SSO
NORAD 12193·DEBRIS·🇺🇸 United States

打ち上げ Mar 5, 1978 から Vandenberg Space Force Base

Loading…

次のパス (今後24時間)

TLE

最新Source: Space-Track

元期: Sep 13, 2026, 22:32 UTC

1 12193U 78026AJ  26256.93948336  .00000988  00000-0  69388-3 0  9997
2 12193  98.8464  85.8388 0234887 315.7191  42.5384 13.88106714263394

AllMySatでDELTA 1 DEBをリアルタイム追跡

Download on the App Store